EW6438 Weather Reports


time (UTC)temp
F
wind
direction
speed
knots
gust
knots
rain 1hr
in
rain 24hr
in
rain mn
in
humidity
%
barometer
mb
20260510022504 48 188 3.5 8.7 0.00 0.00 0.00 89 1006.8
20260510022008 48 211 4.3 8.7 0.00 0.00 0.00 89 1006.7
20260510021516 48 78 2.6 7.0 0.00 0.00 0.00 89 1006.8
20260510021004 48 119 1.7 7.0 0.00 0.00 0.00 89 1006.8
20260510020507 48 83 1.7 7.0 0.00 0.00 0.00 89 1006.7
20260510020022 48 180 2.6 8.7 0.00 0.00 0.00 89 1006.8
20260510015505 48 103 4.3 8.7 0.00 0.00 0.00 89 1006.8
20260510015008 48 92 2.6 7.0 0.00 0.00 0.00 89 1006.7
20260510014523 48 99 3.5 7.8 0.00 0.00 0.00 89 1006.7
20260510014009 48 98 1.7 7.8 0.00 0.00 0.00 89 1006.9
20260510013505 48 114 3.5 7.8 0.00 0.00 0.00 89 1006.9
20260510013023 48 352 2.6 8.7 0.00 0.00 0.00 89 1006.9
20260510012508 48 350 2.6 8.7 0.00 0.00 0.00 89 1006.8
20260510012014 48 121 3.5 8.7 0.00 0.00 0.00 90 1006.8
20260510011513 47 170 3.5 8.7 0.00 0.00 0.00 90 1006.8
20260510011002 47 146 0.9 6.1 0.00 0.00 0.00 90 1006.7
20260510010504 47 115 2.6 7.0 0.00 0.00 0.00 90 1006.7
20260510010014 47 144 2.6 7.0 0.00 0.00 0.00 89 1006.6
20260510005507 47 163 0.9 6.1 0.00 0.00 0.00 90 1006.5
20260510005003 47 115 0.9 6.1 0.00 0.00 0.00 89 1006.4
20260510004509 48 127 1.7 7.8 0.00 0.00 0.00 89 1006.3
20260510004005 48 97 3.5 7.8 0.00 0.00 0.00 89 1006.3
20260510003511 48 105 3.5 7.8 0.00 0.00 0.00 89 1006.3
20260510003006 48 153 1.7 7.8 0.00 0.00 0.00 89 1006.3
20260510002505 48 148 2.6 7.0 0.00 0.00 0.00 89 1006.2
20260510002007 48 152 1.7 7.0 0.00 0.00 0.00 89 1006.2
20260510001510 48 344 1.7 7.0 0.00 0.00 0.00 89 1006.2
20260510001002 48 69 2.6 7.0 0.00 0.00 0.00 89 1006.3
20260510000501 48 133 1.7 7.0 0.00 0.00 0.00 89 1006.3
20260510000013 48 124 1.7 5.2 0.00 0.00 0.00 89 1006.2
20260509235502 48 85 0.9 6.1 0.00 0.00 0.00 89 1006.2
20260509235008 48 78 2.6 6.1 0.00 0.00 0.00 89 1006.1
20260509234532 48 101 0.9 6.1 0.00 0.00 0.00 89 1006.4
20260509234005 47 114 1.7 5.2 0.00 0.00 0.00 89 1006.5
20260509233501 48 170 0.9 5.2 0.00 0.00 0.00 89 1006.6
20260509233014 47 146 2.6 5.2 0.00 0.00 0.00 89 1006.6
20260509232507 47 219 1.7 5.2 0.00 0.00 0.00 89 1006.7
20260509232003 48 117 0.9 5.2 0.00 0.00 0.00 89 1006.8
20260509231506 47 123 1.7 5.2 0.00 0.00 0.00 88 1006.7
20260509231002 48 224 1.7 6.1 0.00 0.00 0.00 89 1006.7
20260509230504 48 116 2.6 6.1 0.00 0.00 0.00 88 1006.6
20260509230008 48 130 1.7 4.3 0.00 0.00 0.00 88 1006.5
20260509225505 48 183 1.7 8.7 0.00 0.00 0.00 88 1006.5
20260509225010 47 218 4.3 8.7 0.00 0.00 0.00 88 1006.4
20260509224505 48 174 2.6 8.7 0.00 0.00 0.00 88 1006.5
20260509224002 47 165 2.6 7.8 0.00 0.00 0.00 88 1006.4
20260509223507 47 31 2.6 7.8 0.00 0.00 0.00 89 1006.3
20260509223020 47 142 1.7 7.0 0.00 0.00 0.00 89 1006.4
20260509222502 47 67 2.6 6.1 0.00 0.00 0.00 89 1006.4
20260509222005 47 97 3.5 7.0 0.00 0.00 0.00 89 1006.4
20260509221519 47 131 3.5 7.0 0.00 0.00 0.00 89 1006.5
20260509221010 47 149 2.6 7.0 0.00 0.00 0.00 89 1006.5
20260509220503 47 34 1.7 7.8 0.00 0.00 0.00 89 1006.5
20260509220013 47 136 3.5 7.8 0.00 0.00 0.00 90 1006.5
20260509215506 47 146 3.5 7.0 0.00 0.00 0.00 90 1006.4
20260509215003 47 167 1.7 7.8 0.00 0.00 0.00 90 1006.4
20260509214515 47 151 3.5 7.8 0.00 0.00 0.00 90 1006.4
20260509214010 46 166 3.5 7.0 0.00 0.00 0.00 90 1006.4
20260509213506 46 204 1.7 5.2 0.00 0.00 0.00 90 1006.5
20260509213010 46 187 1.7 5.2 0.00 0.00 0.00 90 1006.7
20260509212506 46 100 1.7 7.0 0.00 0.00 0.00 90 1006.8
20260509212009 46 103 2.6 10.4 0.00 0.00 0.00 90 1006.9
20260509211510 46 132 3.5 10.4 0.00 0.00 0.00 90 1006.8
20260509211006 46 9 0.9 5.2 0.00 0.00 0.00 90 1006.9
20260509210506 46 84 2.6 5.2 0.00 0.00 0.00 90 1006.9
20260509210030 46 337 1.7 6.1 0.00 0.00 0.00 90 1007.0
20260509205503 46 263 1.7 7.8 0.00 0.00 0.00 89 1007.0
20260509205003 46 84 4.3 7.8 0.00 0.00 0.00 89 1006.9
20260509204523 46 237 0.9 7.8 0.00 0.00 0.00 89 1006.8
20260509204003 46 53 3.5 9.6 0.00 0.00 0.00 89 1006.8
20260509203507 46 128 1.7 9.6 0.00 0.00 0.00 89 1006.9
20260509203020 46 126 2.6 9.6 0.00 0.00 0.00 88 1006.9
20260509202506 46 191 0.9 5.2 0.00 0.00 0.00 88 1007.0
20260509202008 46 154 2.6 5.2 0.00 0.00 0.00 88 1007.0
20260509201517 46 170 1.7 3.5 0.00 0.00 0.00 89 1007.2
20260509201005 46 173 0.9 3.5 0.00 0.00 0.00 88 1007.2
20260509200508 46 184 1.7 3.5 0.00 0.00 0.00 88 1007.2
20260509200037 46 206 1.7 4.3 0.00 0.00 0.00 88 1007.3
20260509195509 46 191 1.7 6.1 0.00 0.00 0.00 87 1007.3
20260509195010 46 122 1.7 6.1 0.00 0.00 0.00 87 1007.3
20260509194520 46 98 2.6 6.1 0.00 0.00 0.00 86 1007.3
20260509194007 46 158 1.7 7.0 0.00 0.00 0.00 86 1007.4
20260509193507 46 114 1.7 7.0 0.00 0.00 0.00 86 1007.4
20260509193013 46 150 2.6 6.1 0.00 0.00 0.00 85 1007.5
20260509192504 46 127 0.9 6.1 0.00 0.00 0.00 85 1007.6
20260509192006 46 107 0.0 3.5 0.00 0.00 0.00 85 1007.6
20260509191517 46 113 1.7 5.2 0.00 0.00 0.00 85 1007.5
20260509191008 46 157 1.7 5.2 0.00 0.00 0.00 85 1007.6
20260509190504 46 159 1.7 5.2 0.00 0.00 0.00 85 1007.7
20260509190024 46 181 1.7 7.8 0.00 0.00 0.00 86 1007.7
20260509185508 45 113 3.5 7.8 0.00 0.00 0.00 86 1007.7
20260509185005 45 129 2.6 7.0 0.00 0.00 0.00 85 1007.7
20260509184534 45 125 2.6 7.0 0.00 0.00 0.00 85 1007.7
20260509184008 45 83 1.7 3.5 0.00 0.00 0.00 85 1007.7
20260509183510 46 166 1.7 5.2 0.00 0.00 0.00 85 1007.7
20260509183016 46 163 2.6 7.0 0.00 0.00 0.00 84 1007.8
20260509182503 46 104 2.6 7.0 0.00 0.00 0.00 82 1007.8
20260509182007 46 135 2.6 7.8 0.00 0.00 0.00 81 1007.9
20260509181511 47 121 3.5 7.0 0.00 0.00 0.00 80 1007.8
20260509181007 47 168 2.6 6.1 0.00 0.00 0.00 79 1007.8
20260509180508 47 170 1.7 7.0 0.00 0.00 0.00 78 1007.7
20260509180023 47 122 2.6 7.0 0.00 0.00 0.00 77 1007.8
20260509175510 47 202 2.6 7.8 0.00 0.00 0.00 76 1007.8
20260509175009 48 199 4.3 7.8 0.00 0.00 0.00 76 1007.8
20260509174523 48 145 3.5 8.7 0.00 0.00 0.00 76 1007.9
20260509174003 48 158 4.3 8.7 0.00 0.00 0.00 75 1007.9
20260509173507 48 142 2.6 7.0 0.00 0.00 0.00 76 1008.0
20260509173025 48 116 1.7 6.1 0.00 0.00 0.00 75 1008.0
20260509172510 48 113 2.6 7.0 0.00 0.00 0.00 75 1008.0
20260509172007 48 112 3.5 7.0 0.00 0.00 0.00 74 1008.0
20260509171519 48 153 3.5 6.1 0.00 0.00 0.00 74 1008.1
20260509171003 48 189 0.9 7.0 0.00 0.00 0.00 74 1008.0
20260509170509 48 83 3.5 9.6 0.00 0.00 0.00 73 1008.1
20260509170020 48 144 3.5 9.6 0.00 0.00 0.00 74 1008.1
20260509165507 48 196 3.5 6.1 0.00 0.00 0.00 75 1008.3
20260509165009 48 267 1.7 7.0 0.00 0.00 0.00 75 1008.3
20260509164515 47 180 2.6 7.0 0.00 0.00 0.00 74 1008.4
20260509164008 47 161 2.6 7.0 0.00 0.00 0.00 75 1008.5
20260509163508 47 125 1.7 6.1 0.00 0.00 0.00 76 1008.6
20260509163032 47 227 0.9 8.7 0.00 0.00 0.00 76 1008.6
20260509162508 47 207 2.6 8.7 0.00 0.00 0.00 76 1008.7
20260509162012 47 137 2.6 8.7 0.00 0.00 0.00 76 1008.6
20260509161526 47 135 3.5 7.8 0.00 0.00 0.00 75 1008.7
20260509161005 47 89 2.6 7.8 0.00 0.00 0.00 76 1008.7
20260509160510 46 40 3.5 7.8 0.00 0.00 0.00 77 1008.8
20260509160028 46 173 2.6 6.1 0.00 0.00 0.00 78 1008.9
20260509155506 46 181 2.6 6.1 0.00 0.00 0.00 78 1009.0
20260509155004 46 226 1.7 7.0 0.00 0.00 0.00 78 1009.1
20260509154522 45 133 0.9 7.0 0.00 0.00 0.00 77 1009.2
20260509154002 45 164 0.9 5.2 0.00 0.00 0.00 80 1009.3
20260509153503 45 186 1.7 5.2 0.00 0.00 0.00 80 1009.3
20260509153002 45 172 1.7 3.5 0.00 0.00 0.00 80 1009.4
20260509152502 45 172 1.7 5.2 0.00 0.00 0.00 80 1009.4
20260509152004 45 225 1.7 7.8 0.00 0.00 0.00 79 1009.4
20260509151508 46 171 3.5 7.8 0.00 0.00 0.00 77 1009.4
20260509151003 47 152 2.6 6.1 0.00 0.00 0.00 75 1009.5
20260509150505 47 155 2.6 7.8 0.00 0.00 0.00 73 1009.4
20260509150010 47 197 2.6 7.8 0.00 0.00 0.00 71 1009.4
20260509145507 48 57 2.6 7.8 0.00 0.00 0.00 71 1009.2
20260509145002 48 197 3.5 7.8 0.00 0.00 0.00 70 1009.3
20260509144512 48 82 2.6 7.8 0.00 0.00 0.00 68 1009.3
20260509144006 48 138 3.5 8.7 0.00 0.00 0.00 68 1009.4
20260509143503 48 215 4.3 9.6 0.00 0.00 0.00 67 1009.3
20260509143010 48 97 3.5 9.6 0.00 0.00 0.00 66 1009.3
20260509142503 48 223 2.6 7.8 0.00 0.00 0.00 65 1009.3
20260509142007 48 94 3.5 7.8 0.00 0.00 0.00 65 1009.4
20260509141504 48 130 2.6 8.7 0.00 0.00 0.00 64 1009.3
20260509141006 47 94 2.6 8.7 0.00 0.00 0.00 63 1009.4
20260509140505 47 248 3.5 8.7 0.00 0.00 0.00 62 1009.4
20260509140030 47 32 3.5 8.7 0.00 0.00 0.00 60 1009.5
20260509135504 47 196 4.3 8.7 0.00 0.00 0.00 59 1009.5
20260509135004 47 107 2.6 8.7 0.00 0.00 0.00 57 1009.5
20260509134513 47 169 3.5 8.7 0.00 0.00 0.00 59 1009.5
20260509134003 47 210 4.3 9.6 0.00 0.00 0.00 56 1009.6
20260509133503 47 130 3.5 9.6 0.00 0.00 0.00 56 1009.6
20260509133020 47 119 4.3 9.6 0.00 0.00 0.00 54 1009.6
20260509132505 47 184 3.5 8.7 0.00 0.00 0.00 54 1009.6
20260509132002 47 162 3.5 8.7 0.00 0.00 0.00 54 1009.7
20260509131518 46 167 2.6 9.6 0.00 0.00 0.00 54 1009.7
20260509131005 46 189 4.3 9.6 0.00 0.00 0.00 54 1009.6
20260509130507 46 96 3.5 7.8 0.00 0.00 0.00 56 1009.6
20260509130008 45 132 3.5 7.8 0.00 0.00 0.00 54 1009.6
20260509125509 45 140 4.3 7.8 0.00 0.00 0.00 54 1009.7
20260509125007 45 127 2.6 6.1 0.00 0.00 0.00 56 1009.8
20260509124508 45 137 2.6 6.1 0.00 0.00 0.00 57 1009.9
20260509124004 44 157 1.7 7.0 0.00 0.00 0.00 58 1010.0
20260509123506 44 136 2.6 7.0 0.00 0.00 0.00 57 1009.9
20260509123004 44 80 2.6 5.2 0.00 0.00 0.00 59 1009.9
20260509122503 43 144 1.7 7.0 0.00 0.00 0.00 58 1010.0
20260509122006 43 90 3.5 7.0 0.00 0.00 0.00 58 1010.1
20260509121518 43 128 2.6 7.8 0.00 0.00 0.00 59 1010.0
20260509121003 42 147 1.7 7.8 0.00 0.00 0.00 60 1010.0
20260509120506 42 51 1.7 6.1 0.00 0.00 0.00 60 1010.2
20260509120005 42 141 1.7 6.1 0.00 0.00 0.00 61 1010.1
20260509115506 41 102 2.6 6.1 0.00 0.00 0.00 59 1010.1
20260509115006 41 150 1.7 5.2 0.00 0.00 0.00 59 1010.1
20260509114510 41 107 0.9 5.2 0.00 0.00 0.00 60 1010.1
20260509114004 40 84 1.7 5.2 0.00 0.00 0.00 63 1010.1
20260509113504 40 111 1.7 3.5 0.00 0.00 0.00 64 1010.1
20260509113016 39 113 1.7 3.5 0.00 0.00 0.00 63 1010.0
20260509112504 39 107 1.7 3.5 0.00 0.00 0.00 64 1010.0
20260509112007 38 117 0.9 2.6 0.00 0.00 0.00 69 1010.0
20260509111512 37 121 0.9 2.6 0.00 0.00 0.00 72 1010.0
20260509111007 37 129 0.9 2.6 0.00 0.00 0.00 76 1010.0
20260509110510 36 126 0.9 3.5 0.00 0.00 0.00 73 1010.0
20260509110029 35 110 0.9 3.5 0.00 0.00 0.00 78 1010.1
20260509105507 34 104 0.9 2.6 0.00 0.00 0.00 79 1010.1
20260509105012 33 118 0.0 1.7 0.00 0.00 0.00 83 1010.0
20260509104530 33 113 0.9 1.7 0.00 0.00 0.00 84 1009.9
20260509104003 32 98 0.9 1.7 0.00 0.00 0.00 85 1009.8
20260509103504 32 98 0.9 1.7 0.00 0.00 0.00 85 1009.8
20260509103010 31 78 0.9 1.7 0.00 0.00 0.00 84 1009.8
20260509102505 30 92 0.9 1.7 0.00 0.00 0.00 86 1009.8
20260509102006 30 81 0.9 1.7 0.00 0.00 0.00 86 1009.8
20260509101528 30 85 0.9 1.7 0.00 0.00 0.00 86 1009.7
20260509101007 30 85 0.9 1.7 0.00 0.00 0.00 86 1009.7
20260509100504 30 92 0.9 1.7 0.00 0.00 0.00 86 1009.7
20260509100021 30 90 0.9 1.7 0.00 0.00 0.00 86 1009.8
20260509095510 30 90 0.9 1.7 0.00 0.00 0.00 86 1009.8
20260509095009 30 90 1.7 1.7 0.00 0.00 0.00 84 1009.9
20260509094511 30 90 0.9 1.7 0.00 0.00 0.00 85 1009.9
20260509094006 30 90 1.7 1.7 0.00 0.00 0.00 85 1009.9
20260509093510 30 87 1.7 1.7 0.00 0.00 0.00 85 1009.9
20260509093012 30 88 1.7 1.7 0.00 0.00 0.00 85 1009.9
20260509092504 30 81 0.9 2.6 0.00 0.00 0.00 86 1010.0
20260509092004 30 90 1.7 2.6 0.00 0.00 0.00 85 1010.0
20260509091514 30 90 0.9 1.7 0.00 0.00 0.00 85 1010.0
20260509091005 30 90 1.7 1.7 0.00 0.00 0.00 85 1010.0
20260509090507 30 84 0.9 1.7 0.00 0.00 0.00 84 1010.0
20260509090026 30 94 1.7 1.7 0.00 0.00 0.00 86 1010.0
20260509085507 30 94 1.7 1.7 0.00 0.00 0.00 85 1009.9
20260509085004 30 83 1.7 1.7 0.00 0.00 0.00 84 1010.0
20260509084523 31 83 1.7 1.7 0.00 0.00 0.00 82 1009.9
20260509084009 31 76 0.9 1.7 0.00 0.00 0.00 82 1010.0
20260509083507 31 76 0.9 0.9 0.00 0.00 0.00 82 1010.1
20260509083031 31 76 0.9 1.7 0.00 0.00 0.00 82 1010.1
20260509082509 31 76 0.9 1.7 0.00 0.00 0.00 82 1010.1
20260509082012 31 78 0.9 1.7 0.00 0.00 0.00 81 1010.2
20260509081511 31 92 0.9 1.7 0.00 0.00 0.00 82 1010.2
20260509081005 31 85 0.9 1.7 0.00 0.00 0.00 81 1010.2
20260509080504 31 68 0.9 1.7 0.00 0.00 0.00 81 1010.1
20260509080012 31 67 0.9 1.7 0.00 0.00 0.00 80 1010.0
20260509075506 31 67 0.9 1.7 0.00 0.00 0.00 80 1010.0
20260509075007 32 44 1.7 1.7 0.00 0.00 0.00 79 1010.1
20260509074523 32 76 0.9 1.7 0.00 0.00 0.00 79 1010.2
20260509074009 33 66 1.7 2.6 0.00 0.00 0.00 76 1010.2
20260509073506 33 79 0.9 2.6 0.00 0.00 0.00 76 1010.2
20260509073024 33 72 0.9 2.6 0.00 0.00 0.00 77 1010.2
20260509072508 33 64 0.9 1.7 0.00 0.00 0.00 76 1010.2
20260509072010 33 67 0.9 1.7 0.00 0.00 0.00 75 1010.1
20260509071526 34 79 0.9 1.7 0.00 0.00 0.00 75 1010.2
20260509071007 34 90 0.9 2.6 0.00 0.00 0.00 74 1010.3
20260509070505 34 58 1.7 2.6 0.00 0.00 0.00 73 1010.3
20260509070021 34 78 1.7 2.6 0.00 0.00 0.00 74 1010.2
20260509065506 33 72 0.9 2.6 0.00 0.00 0.00 75 1010.2
20260509065007 33 80 1.7 2.6 0.00 0.00 0.00 76 1010.3
20260509064527 32 83 0.9 2.6 0.00 0.00 0.00 77 1010.3
20260509064008 32 92 0.9 2.6 0.00 0.00 0.00 80 1010.5
20260509063509 31 95 0.9 1.7 0.00 0.00 0.00 79 1010.5
20260509063014 31 77 0.9 1.7 0.00 0.00 0.00 78 1010.6
20260509062509 32 86 0.9 2.6 0.00 0.00 0.00 78 1010.6
20260509062012 32 80 0.9 2.6 0.00 0.00 0.00 78 1010.7
20260509061537 32 76 0.9 1.7 0.00 0.00 0.00 77 1010.7
20260509061004 33 75 0.9 1.7 0.00 0.00 0.00 75 1010.7
20260509060508 33 68 0.9 1.7 0.00 0.00 0.00 75 1010.7
20260509060030 34 90 0.9 1.7 0.00 0.00 0.00 74 1010.8
20260509055511 34 90 0.9 1.7 0.00 0.00 0.00 72 1010.9
20260509055005 35 104 0.9 2.6 0.00 0.00 0.00 70 1010.9
20260509054527 34 80 0.9 2.6 0.00 0.00 0.00 71 1010.9
20260509054005 34 105 0.9 2.6 0.00 0.00 0.00 72 1011.0
20260509053505 33 76 0.9 1.7 0.00 0.00 0.00 74 1011.0
20260509053030 34 72 0.0 1.7 0.00 0.00 0.00 73 1011.0
20260509052505 34 66 0.0 1.7 0.00 0.00 0.00 72 1011.0
20260509052009 34 66 0.9 1.7 0.00 0.00 0.00 73 1011.1
20260509051520 34 71 0.9 3.5 0.00 0.00 0.00 71 1011.1
20260509051012 34 42 0.0 3.5 0.00 0.00 0.00 72 1011.1
20260509050505 33 68 1.7 1.7 0.00 0.00 0.00 73 1011.2
20260509050017 33 74 0.0 2.6 0.00 0.00 0.00 74 1011.1
20260509045503 33 74 0.0 2.6 0.00 0.00 0.00 74 1011.0
20260509045005 33 351 0.0 1.7 0.00 0.00 0.00 74 1011.1
20260509044512 33 351 0.9 1.7 0.00 0.00 0.00 73 1011.1
20260509044005 33 351 0.9 0.9 0.00 0.00 0.00 72 1011.1
20260509043508 33 351 0.9 0.9 0.00 0.00 0.00 73 1011.0
20260509043010 33 351 0.0 0.9 0.00 0.00 0.00 71 1011.1
20260509042506 32 351 0.0 1.7 0.00 0.00 0.00 75 1011.1
20260509042006 31 351 0.9 1.7 0.00 0.00 0.00 77 1011.1
20260509041523 32 351 0.0 1.7 0.00 0.00 0.00 76 1011.0
20260509041003 32 351 0.0 1.7 0.00 0.00 0.00 76 1010.8
20260509040508 32 351 0.0 1.7 0.00 0.00 0.00 75 1010.7
20260509040027 32 351 0.0 1.7 0.00 0.00 0.00 76 1010.8
20260509035504 32 351 0.0 1.7 0.00 0.00 0.00 73 1010.8
20260509035005 33 351 0.0 1.7 0.00 0.00 0.00 73 1010.8
20260509034524 33 351 0.0 1.7 0.00 0.00 0.00 73 1010.8
20260509034004 33 351 0.0 1.7 0.00 0.00 0.00 72 1010.8
20260509033508 34 351 0.0 0.9 0.00 0.00 0.00 70 1010.9
20260509033012 34 351 0.0 0.9 0.00 0.00 0.00 68 1010.9
20260509032503 34 351 0.0 1.7 0.00 0.00 0.00 67 1011.0
20260509032011 35 351 0.0 1.7 0.00 0.00 0.00 68 1011.0
20260509031516 35 351 0.0 1.7 0.00 0.00 0.00 63 1011.0
20260509031008 35 351 0.0 1.7 0.00 0.00 0.00 67 1011.0
20260509030514 35 351 0.0 1.7 0.00 0.00 0.00 64 1011.1
20260509030013 35 351 0.0 0.9 0.00 0.00 0.00 65 1011.1
20260509025507 35 351 0.0 1.7 0.00 0.00 0.00 64 1011.1
20260509025006 35 351 0.0 1.7 0.00 0.00 0.00 60 1011.1
20260509024528 34 351 0.0 1.7 0.00 0.00 0.00 66 1011.1
20260509024009 34 351 0.9 1.7 0.00 0.00 0.00 70 1011.1
20260509023504 34 5 0.0 0.9 0.00 0.00 0.00 70 1011.1
20260509023033 34 5 0.0 1.7 0.00 0.00 0.00 67 1011.0